Location: Les Moreaux
(47.2278°N, 1.4966°E)
Time: 21:28:00
(UTC+00:00)

Cosmos 1125 Rocket - Pass Details

Date: 19 May 2025
Orbit: 753 x 776 km, 74.0° (Epoch: 18 June)

Event Time Altitude Azimuth Distance (km) Brightness Sun altitude
Rises 21:02:30 0° 337° (NNW) 3,268 8.3 -12.9°
Reaches altitude 10° 21:04:54 10° 337° (NNW) 2,336 7.3 -13.2°
Maximum altitude 21:10:13 85° 250° (WSW) 786 3.5 -13.7°
Enters shadow 21:14:02 19° 162° (SSE) 1,765 4.8 -14.1°
